[[{"header":{"parameterUnit":"m.s-1","parameterCategory":1,"la1":30.2992,"la2":30.254,"lo1":-89.0895,"lo2":-89.0443,"dy":0.0025,"dx":0.0025,"nx":19,"ny":19,"refTime":"2026-05-14T09:00:00:Z","depth":0,"parameterNumber":2,"parameterNumberName":"U-component_of_WINDS"},"data":[0,0,0,-4.3285,-4.3287,-4.337,-4.3371,-4.3484,-4.3485,0,0,0,0,0,0,0,0,0,0,0,-4.3265,-4.3266,-4.3285,-4.3287,-4.337,-4.3371,-4.3484,-4.3485,0,0,0,0,0,0,0,0,0,0,0,-4.3265,-4.3266,-4.3267,-4.3288,-4.337,-4.3371,-4.3484,-4.3418,0,0,0,0,0,0,0,0,0,0,-4.3336,-4.3323,-4.3266,-4.3267,-4.3288,-4.337,-4.3371,-4.3415,-4.3422,-4.345,0,-4.3476,0,-4.3483,-4.3493,-4.3494,0,0,0,-4.3283,-4.3317,-4.3335,-4.3267,-4.3289,-4.337,-4.3332,-4.3419,-4.3427,-4.346,-4.3478,-4.3482,-4.3485,-4.3494,-4.3495,-4.3668,-4.3669,0,0,-4.3279,-4.3283,-4.3329,-4.3341,-4.3329,-4.3329,-4.3334,-4.3424,-4.3443,-4.3478,-4.3484,-4.3486,-4.3495,-4.3496,-4.3667,-4.3668,0,0,0,-4.3268,-4.328,-4.3295,-4.3336,-4.3351,-4.3332,-4.3338,-4.3439,-4.3444,-4.3485,-4.3488,-4.3496,-4.3497,-4.3666,-4.3668,-4.3719,0,0,0,-4.3265,-4.3273,-4.3294,-4.3297,-4.3349,-4.3396,-4.3351,-4.3438,-4.3448,-4.3487,-4.3496,-4.3498,-4.3665,-4.3667,-4.3715,-4.3741,0,0,0,-4.3258,-4.3272,-4.3286,-4.3297,-4.3333,-4.3395,-4.3405,-4.344,-4.345,-4.3494,-4.3499,-4.3664,-4.3666,-4.3712,-4.3736,-4.3786,0,0,0,-4.3251,-4.3331,-4.3287,-4.3377,-4.3332,-4.3427,-4.3404,-4.3474,-4.3518,-4.3496,-4.3665,-4.3667,-4.3711,-4.3732,-4.3783,-4.3827,-4.3847,0,0,-4.3354,-4.3343,-4.3396,-4.336,-4.3463,-4.3414,-4.3525,-4.3561,-4.3562,-4.3633,-4.3637,-4.3716,-4.3735,-4.3785,-4.3963,-4.3978,0,0,0,-4.343,-4.3467,-4.3494,-4.3537,-4.3568,-4.3596,-4.3615,-4.3629,-4.3689,-4.3599,-4.375,-4.3761,-4.379,-4.3811,-4.3824,-4.3848,-4.3678,-4.3678,-4.3678,-4.3577,-4.3575,-4.3661,-4.367,-4.3712,-4.3732,-4.3766,-4.3787,-4.3772,-4.3809,-4.3828,-4.3936,-4.396,-4.397,-4.3995,-4.3854,-4.3854,-4.3855,-4.3855,-4.3724,-4.3775,-4.3756,-4.3832,-4.383,-4.3894,-4.3918,-4.3905,-4.3964,-4.3921,-4.3946,-4.3895,-4.3988,-4.4009,-4.3859,-4.3858,-4.3857,-4.3857,-4.3857,-4.3816,-4.384,-4.3858,-4.392,-4.3969,-4.3975,-4.4033,-4.4029,-4.4026,-4.4052,-4.4071,-4.407,-4.4065,-4.4062,-4.4062,-4.4063,-4.4063,-4.4063,-4.4064,-4.3904,-4.3922,-4.3971,-4.4013,-4.404,-4.4076,-4.4099,-4.4126,-4.4154,-4.4147,-4.4147,-4.4127,-4.3999,-4.3964,-4.4069,-4.4068,-4.4067,-4.4067,-4.4067,-4.4047,-4.4015,-4.409,-4.4118,-4.4167,-4.4214,-4.4211,-4.4266,-4.4288,-4.4316,-4.4293,-4.42,-4.4188,-4.4177,-4.4148,-4.4295,-4.4295,-4.4295,-4.4295,-4.4122,-4.4118,-4.4194,-4.4239,-4.4282,-4.4287,-4.4372,-4.4393,-4.4408,-4.4421,-4.4401,-4.4364,-4.4353,-4.4348,-4.4333,-4.4306,-4.4489,-4.4489,-4.4489,-4.4208,-4.4208,-4.428,-4.4297,-4.4335,-4.4368,-4.4447,-4.4499,-4.451,-4.4497,-4.4431,-4.4423,-4.4363,-4.4345,-4.4325,-4.4303,-4.4253,0,0]},{"header":{"parameterUnit":"m.s-1","parameterCategory":1,"la1":30.2992,"la2":30.254,"lo1":-89.0895,"lo2":-89.0443,"dy":0.0025,"dx":0.0025,"nx":19,"ny":19,"refTime":"2026-05-14T09:00:00:Z","depth":0,"parameterNumber":3,"parameterNumberName":"V-component_of_WINDS"},"data":[0,0,0,3.14,3.1399,3.1355,3.1355,3.1318,3.1318,0,0,0,0,0,0,0,0,0,0,0,3.1426,3.1426,3.14,3.1399,3.1355,3.1355,3.1318,3.1318,0,0,0,0,0,0,0,0,0,0,0,3.1425,3.1426,3.1426,3.1399,3.1355,3.1355,3.1318,3.1344,0,0,0,0,0,0,0,0,0,0,3.1383,3.142,3.1426,3.1426,3.1399,3.1355,3.1355,3.1345,3.1342,3.1347,0,3.1355,0,3.1336,3.1317,3.1317,0,0,0,3.1389,3.1422,3.1399,3.1426,3.1399,3.1355,3.1372,3.1343,3.1341,3.1344,3.1354,3.1352,3.1336,3.1317,3.1317,3.1378,3.1378,0,0,3.1391,3.1424,3.1401,3.1398,3.1407,3.1374,3.1371,3.1341,3.1355,3.1354,3.1351,3.1335,3.1317,3.1316,3.1377,3.1378,0,0,0,3.1405,3.1426,3.1403,3.14,3.1391,3.1373,3.1369,3.1356,3.1346,3.135,3.1334,3.1316,3.1316,3.1376,3.1377,3.1446,0,0,0,3.1406,3.1434,3.1405,3.1424,3.1392,3.1373,3.1385,3.1348,3.1343,3.1335,3.1316,3.1316,3.1375,3.1377,3.1443,3.1473,0,0,0,3.1424,3.1436,3.1434,3.1426,3.1409,3.1373,3.136,3.1346,3.1334,3.1317,3.1316,3.1374,3.1376,3.1439,3.1467,3.1499,0,0,0,3.1452,3.1496,3.1436,3.1479,3.1409,3.1417,3.136,3.1363,3.1357,3.1316,3.1375,3.1377,3.1438,3.1464,3.1495,3.153,3.1548,0,0,3.1525,3.1506,3.1528,3.1473,3.15,3.1421,3.1456,3.1419,3.1386,3.1382,3.1383,3.1444,3.1467,3.1498,3.1639,3.1654,0,0,0,3.1562,3.1579,3.1578,3.1575,3.1548,3.1528,3.1481,3.1468,3.1463,3.1391,3.1463,3.1476,3.1492,3.1508,3.152,3.1532,3.1386,3.1386,3.1385,3.1711,3.1669,3.1704,3.1657,3.1654,3.1607,3.16,3.1573,3.153,3.1548,3.1546,3.1637,3.1656,3.1665,3.1679,3.1562,3.1562,3.1563,3.1563,3.1813,3.183,3.1775,3.1788,3.1743,3.1754,3.171,3.168,3.1683,3.1635,3.1647,3.1598,3.1683,3.1692,3.1568,3.1567,3.1566,3.1566,3.1565,3.1905,3.1906,3.189,3.1881,3.1879,3.183,3.1836,3.1794,3.1755,3.1768,3.1761,3.176,3.1753,3.1768,3.1769,3.1769,3.1769,3.1769,3.177,3.2007,3.1987,3.1997,3.1974,3.1967,3.1952,3.1907,3.1898,3.1877,3.1847,3.1847,3.1802,3.1699,3.1674,3.1774,3.1773,3.1773,3.1772,3.1772,3.2124,3.2092,3.2108,3.2101,3.2071,3.2072,3.2021,3.2007,3.1994,3.1998,3.1951,3.1882,3.1859,3.1848,3.1827,3.1961,3.1961,3.1961,3.1961,3.2201,3.2186,3.2194,3.2186,3.2173,3.2129,3.2148,3.2114,3.2072,3.2062,3.2037,3.2005,3.1997,3.1978,3.1965,3.1944,3.2105,3.2105,3.2105,3.2271,3.2253,3.2278,3.2239,3.2213,3.2192,3.2209,3.2201,3.2147,3.211,3.2052,3.2046,3.1995,3.198,3.1941,3.1922,3.1883,0,0]}]]